User: anonymous   Login
Location: Oshawa
(43.9000°N, 78.8670°W)
Time: 18:08:08
(UTC-04:00)
Language:

Explorer 11/Cluster Stage 4 - Orbit

View from above orbital plane
View from above orbital plane
View from above satellite
View from above satellite

Ground track
Ground track

The orbit data is extracted from the following two-line orbital elements,

1 00107U 61013A   17289.22230963  .00000471  00000-0  41915-4 0  9999
2 00107  28.7888 287.1731 0548989 181.5694 178.3136 14.08412805828142
Epoch (UTC): 16 October 2017 05:20:07
Eccentricity: 0.0548989
inclination: 28.7888°
perigee height: 467 km
apogee height: 1262 km
right ascension of ascending node: 287.1731°
argument of perigee: 181.5694°
revolutions per day: 14.08412805
mean anomaly at epoch: 178.3136°
orbit number at epoch: 82814

The dashed part of the orbit path shows where the satellite is in the earth's shadow,  

DLR